{"data":{"norad_id":57465,"intl_designator":"2023-107J","name":"STARLINK-30116","alt_names":[],"object_type":"PAYLOAD","status":"ACTIVE","operator":null,"country":"US","launch_date":"2023-07-28","launch_site_code":"AFETR","launch_vehicle":null,"mission":null,"orbit_class":"UNKNOWN","rcs_meters":null,"size_class":null,"mass_kg":null,"dimensions":null,"purposes":["comms"],"wikipedia_slug":null,"has_3d_model":false,"image_url":null,"decayed_at":null,"tle_current":{"epoch":"2026-09-20T20:31:29.386272Z","epoch_age_seconds":97347,"freshness":"FRESH","line1":"1 57465U 23107J   26263.85520123  .00000272  00000+0  19432-4 0  9998","line2":"2 57465  43.0048 314.0425 0001565 267.3929  92.6743 15.27580141174997","mean_motion":15.27580141,"eccentricity":0.0001565,"inclination_deg":43.0048,"raan_deg":314.0425,"arg_perigee_deg":267.3929,"mean_anomaly_deg":92.6743,"bstar":1.9432e-5,"rev_number":17499,"period_min":94.266740012562,"perigee_km":481.97489827701,"apogee_km":484.12244939292,"semimajor_km":6861.185673835,"source":"CELESTRAK","updated_at":"2026-09-21T09:00:33.629862Z"}}}